Beaufort, NC

10:34 PM EST on January 16, 2018 (GMT -0500)
Smith

Weather History for KMRH - September, 2012

Change the Weather History Date:

Sunday, September 16, 2012

  Actual Average Record
Temperature  
Mean Temperature 71 °F -  
Max Temperature 79 °F 84 °F 91 °F (1965)
Min Temperature 64 °F 65 °F 58 °F (1967)
Cooling Degree Days 6    
Growing Degree Days 21 (Base 50)    
Moisture  
Dew Point 60 °F    
Average Humidity 67    
Maximum Humidity 81    
Minimum Humidity 54    
Precipitation  
Precipitation 0.00 in - - ()
Sea Level Pressure  
Sea Level Pressure 30.12 in    
Wind  
Wind Speed 4 mph (ENE)    
Max Wind Speed 8 mph    
Max Gust Speed -    
Visibility 10 miles    
Events      
Averages and records for this station are not official NWS values.
T = Trace of Precipitation, MM = Missing Value Source: NWS Daily Summary

Daily Weather History Graph

Daily Weather History Graph

Search for Another Location

Airport or City:

Trip Planner

Search our weather history database for the weather conditions in past years. The results will help you decide how hot, cold, wet, or windy it might be!

Date:

Astronomy

Sep. 16, 2012 Rise Set
Actual Time 6:50 AM EDT 7:11 PM EDT
Civil Twilight 6:25 AM EDT 7:36 PM EDT
Nautical Twilight 5:55 AM EDT 8:06 PM EDT
Astronomical Twilight 5:25 AM EDT 8:36 PM EDT
Moon 7:23 AM EDT (9/16) 7:20 PM EDT (9/16)
Length of Visible Light 13h 11m
Length of Day
12h 20m
New Moon, 0% of the Moon is Illuminated
Sep 16
New Moon
Sep 22
First Quarter
Sep 29
Full
Oct 8
Last Quarter
Oct 15
New

Hourly Weather History & Observations

Time (EDT) Temp. Dew Point Humidity Pressure Visibility Wind Dir Wind Speed Gust Speed Precip Events Conditions
12:56 AM 68.0 °F 60.1 °F 76% 30.13 in 10.0 mi NE 3.5 mph - N/A   Clear
1:56 AM 66.0 °F 60.1 °F 81% 30.14 in 10.0 mi North 3.5 mph - N/A   Scattered Clouds
2:56 AM 66.9 °F 60.1 °F 79% 30.13 in 10.0 mi Calm Calm - N/A   Overcast
3:56 AM 66.0 °F 59.0 °F 78% 30.12 in 10.0 mi NNE 3.5 mph - N/A   Scattered Clouds
4:56 AM 64.9 °F 57.9 °F 78% 30.12 in 10.0 mi NNE 4.6 mph - N/A   Clear
5:56 AM 66.0 °F 57.9 °F 75% 30.13 in 10.0 mi NNE 4.6 mph - N/A   Overcast
6:56 AM 66.0 °F 59.0 °F 78% 30.14 in 10.0 mi NNE 6.9 mph - N/A   Overcast
9:56 AM 73.9 °F 60.1 °F 62% 30.16 in 10.0 mi NE 5.8 mph - N/A   Clear
10:56 AM 75.0 °F 59.0 °F 57% 30.16 in 10.0 mi ESE 6.9 mph - N/A   Clear
11:56 AM 77.0 °F 59.0 °F 54% 30.15 in 10.0 mi ENE 6.9 mph - N/A   Clear
12:56 PM 78.1 °F 61.0 °F 56% 30.14 in 10.0 mi SSE 4.6 mph - N/A   Clear
1:56 PM 78.1 °F 60.1 °F 54% 30.13 in 10.0 mi Variable 5.8 mph - N/A   Clear
2:56 PM 75.9 °F 60.1 °F 58% 30.12 in 10.0 mi East 4.6 mph - N/A   Mostly Cloudy
3:56 PM 77.0 °F 60.1 °F 56% 30.10 in 10.0 mi ENE 8.1 mph - N/A   Partly Cloudy
4:56 PM 77.0 °F 60.1 °F 56% 30.09 in 10.0 mi East 6.9 mph - N/A   Clear
5:56 PM 75.0 °F 59.0 °F 57% 30.09 in 10.0 mi East 4.6 mph - N/A   Mostly Cloudy
6:56 PM 73.0 °F 60.1 °F 64% 30.09 in 10.0 mi East 5.8 mph - N/A   Clear
7:56 PM 72.0 °F 60.1 °F 66% 30.10 in 10.0 mi Calm Calm - N/A   Clear
8:56 PM 71.1 °F 61.0 °F 70% 30.11 in 10.0 mi Calm Calm - N/A   Scattered Clouds
9:56 PM 73.0 °F 62.1 °F 68% 30.12 in 10.0 mi Calm Calm - N/A   Clear
10:56 PM 73.0 °F 63.0 °F 71% 30.11 in 10.0 mi Calm Calm - N/A   Mostly Cloudy
11:56 PM 73.0 °F 63.0 °F 71% 30.12 in 10.0 mi Calm Calm - N/A   Overcast